Ashtabula, OH

9:11 PM EST on December 06, 2019 (GMT -0500)
Ashtabula County

Weather History for KHZY - November, 2019

Change the Weather History Date:

Tuesday, November 19, 2019

  Actual Average (KGKJ) Record (KGKJ)
Temperature  
Mean Temperature 32 °F -  
Max Temperature 37 °F 48 °F 74 °F (1958)
Min Temperature 26 °F 30 °F 8 °F (1959)
Degree Days  
Heating Degree Days 34    
Moisture  
Dew Point 32 °F    
Average Humidity 94    
Maximum Humidity 100    
Minimum Humidity 89    
Precipitation  
Precipitation 0.00 in - - ()
Sea Level Pressure  
Sea Level Pressure 29.84 in    
Wind  
Wind Speed 2 mph ()    
Max Wind Speed 6 mph    
Max Gust Speed -    
Visibility 4.0 miles    
Events      
Averages and records for this station are not official NWS values.
T = Trace of Precipitation, MM = Missing Value Source: Averaged Metar Reports

Daily Weather History Graph

Daily Weather History Graph

Search for Another Location

Airport or City:

Astronomy

Nov. 19, 2019 Rise Set
Actual Time 7:16 AM EST 4:59 PM EST
Civil Twilight 6:46 AM EST 5:29 PM EST
Nautical Twilight 6:12 AM EST 6:03 PM EST
Astronomical Twilight 5:39 AM EST 6:36 PM EST
Moon 11:54 PM EST (11/19) 1:25 PM EST (11/19)
Length of Visible Light 10h 42m
Length of Day
9h 42m
Waning Gibbous, 52% of the Moon is Illuminated
Nov 19
Waning Gibbous
Nov 19
Last Quarter
Nov 26
New
Dec 4
First Quarter
Dec 12
Full

Hourly Weather History & Observations

Time (EST) Temp. Windchill Dew Point Humidity Pressure Visibility Wind Dir Wind Speed Gust Speed Precip Events Conditions
12:53 AM 27.0 °F - 25.0 °F 92% 29.76 in 7.0 mi Calm Calm - N/A   Clear
1:53 AM 26.1 °F - 26.1 °F 100% 29.75 in 5.0 mi Calm Calm - N/A   Clear
2:53 AM 26.1 °F 21.9 °F 25.0 °F 96% 29.76 in 8.0 mi WSW 3.5 mph - N/A   Clear
3:26 AM 26.1 °F 21.9 °F 24.1 °F 92% 29.75 in 8.0 mi WSW 3.5 mph - N/A   Mostly Cloudy
3:51 AM 28.4 °F - 28.4 °F 100% 29.75 in 7.0 mi Calm Calm - N/A   Overcast
3:53 AM 28.9 °F - 28.0 °F 96% 29.77 in 7.0 mi Calm Calm - N/A   Overcast
4:06 AM 30.0 °F - 28.0 °F 92% 29.75 in 6.0 mi Calm Calm - N/A   Overcast
4:53 AM 30.9 °F 26.2 °F 30.0 °F 96% 29.77 in 5.0 mi East 4.6 mph - N/A   Overcast
5:53 AM 30.9 °F 27.5 °F 30.9 °F 100% 29.79 in 6.0 mi SSW 3.5 mph - N/A   Overcast
6:40 AM 30.0 °F - 28.9 °F 96% 29.78 in 5.0 mi Calm Calm - N/A   Scattered Clouds
6:53 AM 28.9 °F 25.2 °F 28.9 °F 100% 29.81 in 4.0 mi SSW 3.5 mph - N/A   Scattered Clouds
7:05 AM 30.0 °F 26.5 °F 30.0 °F 100% 29.78 in 5.0 mi South 3.5 mph - N/A   Mostly Cloudy
7:42 AM 30.9 °F - 30.0 °F 96% 29.79 in 4.0 mi Calm Calm - N/A   Overcast
7:53 AM 30.9 °F 26.2 °F 30.9 °F 100% 29.83 in 4.0 mi SSW 4.6 mph - N/A   Overcast
8:14 AM 32.0 °F 28.7 °F 30.9 °F 96% 29.80 in 3.0 mi South 3.5 mph - N/A   Overcast
8:24 AM 32.0 °F 28.7 °F 32.0 °F 100% 29.80 in 3.0 mi ESE 3.5 mph - N/A   Overcast
8:53 AM 33.1 °F - 32.0 °F 96% 29.83 in 3.0 mi Calm Calm - N/A   Overcast
9:00 AM 33.1 °F - 32.0 °F 96% 29.80 in 3.0 mi Calm Calm - N/A   Mostly Cloudy
9:49 AM 35.6 °F 31.7 °F 33.8 °F 93% 29.81 in 4.0 mi South 4.6 mph - N/A   Overcast
9:53 AM 35.1 °F 32.2 °F 33.1 °F 92% 29.84 in 4.0 mi South 3.5 mph - N/A   Overcast
10:53 AM 36.0 °F 31.1 °F 33.1 °F 89% 29.85 in 5.0 mi South 5.8 mph - N/A   Overcast
11:34 AM 37.0 °F 33.3 °F 34.0 °F 89% 29.82 in 5.0 mi South 4.6 mph - N/A   Overcast
11:53 AM 37.0 °F 34.5 °F 34.0 °F 89% 29.85 in 5.0 mi South 3.5 mph - N/A   Overcast
12:53 PM 37.0 °F 34.5 °F 34.0 °F 89% 29.84 in 4.0 mi South 3.5 mph - N/A   Overcast
2:53 PM 37.9 °F 34.4 °F 35.1 °F 89% 29.86 in 3.0 mi SW 4.6 mph - N/A   Overcast
3:53 PM 37.9 °F 35.5 °F 35.1 °F 89% 29.88 in 3.0 mi SSW 3.5 mph - N/A   Overcast
4:41 PM 37.9 °F 35.5 °F 35.1 °F 89% 29.86 in 2.5 mi South 3.5 mph - N/A   Overcast
4:50 PM 37.4 °F - 35.6 °F 93% 29.87 in 3.0 mi Calm Calm - N/A   Overcast
4:53 PM 37.9 °F 35.5 °F 35.1 °F 89% 29.89 in 3.0 mi South 3.5 mph - N/A   Overcast
5:53 PM 37.9 °F - 35.1 °F 89% 29.91 in 4.0 mi Calm Calm - N/A   Overcast
6:53 PM 37.0 °F - 35.1 °F 93% 29.92 in 3.0 mi Calm Calm - N/A   Overcast
7:53 PM 37.0 °F - 36.0 °F 96% 29.93 in 3.0 mi Calm Calm - N/A   Overcast
8:39 PM 37.9 °F - 36.0 °F 93% 29.91 in 3.0 mi Calm Calm - N/A   Overcast
8:53 PM 37.9 °F - 36.0 °F 93% 29.94 in 3.0 mi Calm Calm - N/A   Overcast
9:03 PM 37.9 °F - 36.0 °F 93% 29.92 in 2.5 mi Calm Calm - N/A   Overcast
9:53 PM 37.0 °F - 36.0 °F 96% 29.95 in 2.5 mi Calm Calm - N/A   Overcast
10:53 PM 37.0 °F - 37.0 °F 100% 29.95 in 2.0 mi Calm Calm - N/A   Overcast
11:00 PM 37.0 °F 34.5 °F 36.0 °F 96% 29.92 in 2.0 mi SSW 3.5 mph - N/A   Overcast
11:07 PM 37.0 °F - 36.0 °F 96% 29.92 in 2.0 mi Calm Calm - N/A   Overcast
11:16 PM 37.0 °F 34.5 °F 36.0 °F 96% 29.93 in 2.0 mi WSW 3.5 mph - N/A   Overcast
11:53 PM 37.9 °F - 37.0 °F 97% 29.96 in 2.0 mi Calm Calm - N/A   Overcast